NJE024B EGHQ-EHRD

Flight info

Callsign NJE024B
Flight time 1h 5m
Altitude 41000
Route DAWLY L620 MID M185 KOBBI M197 REDFA
Aircraft CL60/M-SBDE1E2E3FGHIJ1J4J5J7M3RWXYZ/LB1V1D1

Departure

Time 2026-04-28 06:57
Airport Cornwall Airport Newquay (EGHQ)

Arrival

Time 2026-04-28 08:03
Airport Rotterdam The Hague Airport (EHRD)
Time Latitude Longitude Altitude Speed Heading
2026-04-28 06:32 50.44442 -4.99733 348 ft 0 kts 156°
2026-04-28 06:56 50.44437 -4.99730 348 ft 2 kts 168°
2026-04-28 06:56 50.44405 -4.99841 346 ft 18 kts 278°
2026-04-28 06:56 50.44466 -5.00047 341 ft 22 kts 265°
2026-04-28 06:56 50.44418 -5.00241 335 ft 20 kts 246°
2026-04-28 06:57 50.44360 -5.00287 334 ft 0 kts 118°
2026-04-28 06:57 50.44269 -5.00047 341 ft 81 kts 120°
2026-04-28 06:57 50.43721 -4.98951 537 ft 165 kts 128°
2026-04-28 06:57 50.43150 -4.97290 1485 ft 181 kts 96°
2026-04-28 06:58 50.43180 -4.95456 2836 ft 177 kts 82°
2026-04-28 06:58 50.43269 -4.93664 4108 ft 175 kts 81°
2026-04-28 06:58 50.43353 -4.91727 5275 ft 187 kts 81°
2026-04-28 06:58 50.43433 -4.89596 6216 ft 218 kts 81°
2026-04-28 06:59 50.43535 -4.87074 7245 ft 249 kts 81°
2026-04-28 06:59 50.43641 -4.84369 8724 ft 261 kts 81°
2026-04-28 06:59 50.43777 -4.81546 10275 ft 267 kts 77°
2026-04-28 06:59 50.44068 -4.78749 11851 ft 270 kts 74°
2026-04-28 07:00 50.44379 -4.75909 13365 ft 274 kts 74°
2026-04-28 07:00 50.44695 -4.72997 14823 ft 277 kts 73°
2026-04-28 07:00 50.45011 -4.70071 16139 ft 283 kts 73°
2026-04-28 07:00 50.45359 -4.66902 16758 ft 301 kts 73°
2026-04-28 07:01 50.45704 -4.63672 17252 ft 309 kts 73°
2026-04-28 07:01 50.46068 -4.60262 17763 ft 321 kts 73°
2026-04-28 07:01 50.46435 -4.56788 18265 ft 328 kts 73°
2026-04-28 07:01 50.46804 -4.53263 18764 ft 331 kts 73°
2026-04-28 07:02 50.47175 -4.49696 19252 ft 332 kts 73°
2026-04-28 07:02 50.47545 -4.46121 19757 ft 332 kts 72°
2026-04-28 07:02 50.47915 -4.42539 20264 ft 333 kts 72°
2026-04-28 07:02 50.48280 -4.38995 20763 ft 335 kts 72°
2026-04-28 07:03 50.48654 -4.35362 21274 ft 337 kts 72°
2026-04-28 07:03 50.49030 -4.31700 21778 ft 339 kts 73°
2026-04-28 07:03 50.49406 -4.28016 22279 ft 341 kts 72°
2026-04-28 07:03 50.49779 -4.24350 22793 ft 343 kts 72°
2026-04-28 07:04 50.50151 -4.20679 23290 ft 345 kts 72°
2026-04-28 07:04 50.50531 -4.16929 23794 ft 347 kts 72°
2026-04-28 07:04 50.50909 -4.13173 24295 ft 348 kts 72°
2026-04-28 07:04 50.51282 -4.09468 24790 ft 350 kts 72°
2026-04-28 07:05 50.51663 -4.05668 25290 ft 353 kts 72°
2026-04-28 07:05 50.52046 -4.01834 25788 ft 357 kts 72°
2026-04-28 07:05 50.52430 -3.97993 26288 ft 361 kts 72°
2026-04-28 07:05 50.52820 -3.94066 26793 ft 366 kts 73°
2026-04-28 07:06 50.53211 -3.90108 27297 ft 370 kts 73°
2026-04-28 07:06 50.53606 -3.86095 27801 ft 374 kts 73°
2026-04-28 07:06 50.54005 -3.82034 28300 ft 377 kts 73°
2026-04-28 07:06 50.54406 -3.77935 28809 ft 382 kts 73°
2026-04-28 07:07 50.54811 -3.73776 29324 ft 386 kts 74°
2026-04-28 07:07 50.55219 -3.69578 29810 ft 391 kts 74°
2026-04-28 07:07 50.55631 -3.65307 30318 ft 394 kts 74°
2026-04-28 07:07 50.56046 -3.60983 30833 ft 397 kts 74°
2026-04-28 07:08 50.56463 -3.56624 31332 ft 399 kts 75°
2026-04-28 07:08 50.56876 -3.52287 31851 ft 400 kts 75°
2026-04-28 07:08 50.57289 -3.47943 32356 ft 400 kts 74°
2026-04-28 07:08 50.57892 -3.43747 32877 ft 395 kts 68°
2026-04-28 07:09 50.58688 -3.39588 33357 ft 394 kts 68°
2026-04-28 07:09 50.59476 -3.35454 33873 ft 393 kts 68°
2026-04-28 07:09 50.60252 -3.31364 34373 ft 392 kts 69°
2026-04-28 07:09 50.61034 -3.27238 34887 ft 390 kts 69°
2026-04-28 07:10 50.61796 -3.23202 35389 ft 388 kts 69°
2026-04-28 07:10 50.62558 -3.19155 35899 ft 385 kts 69°
2026-04-28 07:10 50.63308 -3.15162 36440 ft 384 kts 70°
2026-04-28 07:10 50.64069 -3.11107 36934 ft 382 kts 70°
2026-04-28 07:11 50.64808 -3.07154 37433 ft 380 kts 70°
2026-04-28 07:11 50.65544 -3.03208 37932 ft 377 kts 70°
2026-04-28 07:11 50.66284 -2.99230 38433 ft 374 kts 70°
2026-04-28 07:11 50.67003 -2.95360 38941 ft 370 kts 70°
2026-04-28 07:12 50.67713 -2.91525 39427 ft 366 kts 70°
2026-04-28 07:12 50.68420 -2.87696 39931 ft 361 kts 70°
2026-04-28 07:12 50.69117 -2.83918 40432 ft 355 kts 70°
2026-04-28 07:12 50.69789 -2.80263 40918 ft 349 kts 70°
2026-04-28 07:13 50.70459 -2.76618 41232 ft 348 kts 70°
2026-04-28 07:13 50.71834 -2.69131 41260 ft 362 kts 70°
2026-04-28 07:14 50.73249 -2.61388 41265 ft 375 kts 71°
2026-04-28 07:14 50.74709 -2.53355 41250 ft 387 kts 70°
2026-04-28 07:15 50.76203 -2.45096 41258 ft 399 kts 71°
2026-04-28 07:15 50.77742 -2.36547 41256 ft 409 kts 71°
2026-04-28 07:16 50.79311 -2.27793 41254 ft 419 kts 72°
2026-04-28 07:16 50.80901 -2.18864 41253 ft 427 kts 71°
2026-04-28 07:17 50.82518 -2.09736 41250 ft 435 kts 72°
2026-04-28 07:17 50.84141 -2.00522 41253 ft 441 kts 72°
2026-04-28 07:18 50.85790 -1.91121 41254 ft 446 kts 72°
2026-04-28 07:18 50.87452 -1.81587 41251 ft 450 kts 72°
2026-04-28 07:19 50.89106 -1.72056 41255 ft 454 kts 72°
2026-04-28 07:19 50.90773 -1.62389 41250 ft 458 kts 72°
2026-04-28 07:20 50.92448 -1.52628 41247 ft 463 kts 72°
2026-04-28 07:20 50.94145 -1.42686 41241 ft 468 kts 72°
2026-04-28 07:21 50.95811 -1.32613 41252 ft 473 kts 75°
2026-04-28 07:21 50.97246 -1.22371 41247 ft 477 kts 75°
2026-04-28 07:22 50.99383 -1.06944 41241 ft 477 kts 75°
2026-04-28 07:22 51.00799 -0.96636 41238 ft 477 kts 75°
2026-04-28 07:23 51.02211 -0.86281 41239 ft 476 kts 75°
2026-04-28 07:23 51.03602 -0.76012 41245 ft 476 kts 75°
2026-04-28 07:24 51.05528 -0.65952 41251 ft 472 kts 62°
2026-04-28 07:24 51.09224 -0.57445 41254 ft 469 kts 44°
2026-04-28 07:25 51.14492 -0.51235 41250 ft 467 kts 26°
2026-04-28 07:25 51.20546 -0.47418 41252 ft 467 kts 20°
2026-04-28 07:26 51.26739 -0.44270 41258 ft 466 kts 14°
2026-04-28 07:26 51.33001 -0.41435 41261 ft 465 kts 17°
2026-04-28 07:27 51.39113 -0.37922 41268 ft 465 kts 21°
2026-04-28 07:27 51.45085 -0.33629 41268 ft 465 kts 25°
2026-04-28 07:28 51.50961 -0.29151 41273 ft 465 kts 25°
2026-04-28 07:28 51.56793 -0.24685 41268 ft 465 kts 26°
2026-04-28 07:29 51.62280 -0.19127 41278 ft 465 kts 38°
2026-04-28 07:29 51.66831 -0.11747 41267 ft 466 kts 51°
2026-04-28 07:30 51.70235 -0.02794 41272 ft 469 kts 64°
2026-04-28 07:30 51.72295 0.07303 41277 ft 472 kts 73°
2026-04-28 07:31 51.73894 0.17628 41271 ft 472 kts 73°
2026-04-28 07:31 51.75478 0.27909 41277 ft 472 kts 73°
2026-04-28 07:32 51.77050 0.38186 41280 ft 472 kts 74°
2026-04-28 07:32 51.78612 0.48462 41285 ft 472 kts 74°
2026-04-28 07:33 51.80165 0.58742 41288 ft 472 kts 74°
2026-04-28 07:33 51.81723 0.69026 41271 ft 472 kts 74°
2026-04-28 07:34 51.83325 0.79257 41274 ft 472 kts 74°
2026-04-28 07:34 51.85104 0.89507 41280 ft 471 kts 72°
2026-04-28 07:35 51.86950 0.99633 41282 ft 471 kts 72°
2026-04-28 07:35 51.87866 1.04682 41127 ft 475 kts 72°
2026-04-28 07:35 51.88805 1.09865 40504 ft 478 kts 72°
2026-04-28 07:36 51.89714 1.14915 39690 ft 468 kts 72°
2026-04-28 07:36 51.90617 1.19940 38991 ft 464 kts 72°
2026-04-28 07:36 51.91510 1.24921 38264 ft 461 kts 72°
2026-04-28 07:36 51.92402 1.29911 37529 ft 459 kts 72°
2026-04-28 07:37 51.93281 1.34842 36779 ft 456 kts 72°
2026-04-28 07:37 51.94149 1.39720 36041 ft 454 kts 72°
2026-04-28 07:37 51.95021 1.44638 35293 ft 448 kts 72°
2026-04-28 07:37 51.95867 1.49424 34548 ft 444 kts 73°
2026-04-28 07:38 51.96714 1.54225 33756 ft 443 kts 73°
2026-04-28 07:38 51.97544 1.58943 32836 ft 440 kts 73°
2026-04-28 07:38 51.98371 1.63661 31781 ft 432 kts 73°
2026-04-28 07:38 51.99171 1.68330 30768 ft 423 kts 74°
2026-04-28 07:39 51.99882 1.72839 29951 ft 411 kts 75°
2026-04-28 07:39 52.00569 1.77238 29377 ft 396 kts 75°
2026-04-28 07:39 52.01235 1.81514 28790 ft 386 kts 75°
2026-04-28 07:39 52.01886 1.85699 28279 ft 385 kts 75°
2026-04-28 07:40 52.02540 1.89916 27765 ft 382 kts 75°
2026-04-28 07:40 52.03177 1.94026 27269 ft 383 kts 75°
2026-04-28 07:40 52.03829 1.98255 26763 ft 385 kts 75°
2026-04-28 07:40 52.04470 2.02417 26257 ft 382 kts 75°
2026-04-28 07:41 52.05106 2.06567 25741 ft 379 kts 75°
2026-04-28 07:41 52.05739 2.10703 25243 ft 376 kts 75°
2026-04-28 07:41 52.06363 2.14790 24751 ft 372 kts 75°
2026-04-28 07:41 52.06972 2.18792 24232 ft 369 kts 76°
2026-04-28 07:42 52.07589 2.22855 23751 ft 366 kts 76°
2026-04-28 07:42 52.08187 2.26805 23299 ft 365 kts 76°
2026-04-28 07:42 52.08791 2.30804 22808 ft 362 kts 76°
2026-04-28 07:42 52.09390 2.34771 22327 ft 361 kts 76°
2026-04-28 07:43 52.09981 2.38709 21865 ft 358 kts 76°
2026-04-28 07:43 52.10572 2.42649 21374 ft 357 kts 76°
2026-04-28 07:43 52.11036 2.46550 20910 ft 355 kts 85°
2026-04-28 07:43 52.10843 2.50521 20415 ft 355 kts 102°
2026-04-28 07:44 52.09968 2.54257 19893 ft 355 kts 111°
2026-04-28 07:44 52.08953 2.57872 19422 ft 353 kts 111°
2026-04-28 07:44 52.07943 2.61495 18961 ft 351 kts 111°
2026-04-28 07:44 52.06945 2.65063 18501 ft 350 kts 112°
2026-04-28 07:45 52.05932 2.68686 18031 ft 348 kts 112°
2026-04-28 07:45 52.04933 2.72251 17568 ft 347 kts 112°
2026-04-28 07:45 52.03920 2.75860 17144 ft 354 kts 112°
2026-04-28 07:45 52.02897 2.79502 16636 ft 356 kts 112°
2026-04-28 07:46 52.01880 2.83112 16167 ft 352 kts 112°
2026-04-28 07:46 52.00869 2.86697 15704 ft 350 kts 112°
2026-04-28 07:46 51.99863 2.90257 15244 ft 348 kts 113°
2026-04-28 07:46 51.98861 2.93798 14778 ft 346 kts 113°
2026-04-28 07:47 51.97857 2.97340 14321 ft 344 kts 112°
2026-04-28 07:47 51.96857 3.00863 13868 ft 342 kts 113°
2026-04-28 07:47 51.95868 3.04343 13409 ft 341 kts 113°
2026-04-28 07:47 51.94885 3.07797 12971 ft 338 kts 113°
2026-04-28 07:48 51.93909 3.11222 12507 ft 336 kts 113°
2026-04-28 07:48 51.92931 3.14647 12090 ft 334 kts 113°
2026-04-28 07:48 51.91964 3.18028 11644 ft 325 kts 113°
2026-04-28 07:48 51.91032 3.21277 11214 ft 312 kts 113°
2026-04-28 07:49 51.90137 3.24393 10805 ft 301 kts 113°
2026-04-28 07:49 51.89277 3.27387 10423 ft 290 kts 113°
2026-04-28 07:49 51.88434 3.30318 10055 ft 281 kts 113°
2026-04-28 07:49 51.87622 3.33136 9656 ft 275 kts 113°
2026-04-28 07:50 51.86824 3.35902 9283 ft 269 kts 113°
2026-04-28 07:50 51.86037 3.38633 8761 ft 268 kts 113°
2026-04-28 07:50 51.85259 3.41324 8384 ft 261 kts 112°
2026-04-28 07:50 51.84499 3.43950 8015 ft 257 kts 112°
2026-04-28 07:51 51.83743 3.46565 7671 ft 256 kts 112°
2026-04-28 07:51 51.82988 3.49171 7324 ft 256 kts 112°
2026-04-28 07:51 51.82236 3.51763 6989 ft 254 kts 112°
2026-04-28 07:51 51.81487 3.54344 6651 ft 253 kts 112°
2026-04-28 07:52 51.80745 3.56898 6313 ft 251 kts 112°
2026-04-28 07:52 51.80230 3.59526 5965 ft 248 kts 93°
2026-04-28 07:52 51.80455 3.62220 5743 ft 242 kts 73°
2026-04-28 07:52 51.80990 3.64837 5614 ft 245 kts 72°
2026-04-28 07:53 51.81520 3.67461 5437 ft 244 kts 73°
2026-04-28 07:53 51.82040 3.70046 5262 ft 244 kts 73°
2026-04-28 07:53 51.82561 3.72645 5094 ft 242 kts 73°
2026-04-28 07:53 51.83084 3.75252 4919 ft 241 kts 73°
2026-04-28 07:54 51.83601 3.77832 4746 ft 240 kts 73°
2026-04-28 07:54 51.84112 3.80389 4579 ft 240 kts 73°
2026-04-28 07:54 51.84621 3.82942 4401 ft 239 kts 72°
2026-04-28 07:54 51.85133 3.85508 4228 ft 238 kts 73°
2026-04-28 07:55 51.85638 3.88047 4064 ft 238 kts 72°
2026-04-28 07:55 51.86092 3.90629 3897 ft 236 kts 81°
2026-04-28 07:55 51.86174 3.93302 3719 ft 237 kts 88°
2026-04-28 07:55 51.86200 3.95951 3549 ft 235 kts 88°
2026-04-28 07:56 51.86229 3.98574 3381 ft 234 kts 88°
2026-04-28 07:56 51.86259 4.01204 3208 ft 233 kts 87°
2026-04-28 07:56 51.86289 4.03816 3050 ft 232 kts 88°
2026-04-28 07:56 51.86319 4.06458 2882 ft 231 kts 87°
2026-04-28 07:57 51.86346 4.08998 2730 ft 219 kts 87°
2026-04-28 07:57 51.86371 4.11374 2588 ft 206 kts 87°
2026-04-28 07:57 51.86394 4.13650 2429 ft 199 kts 86°
2026-04-28 07:57 51.86418 4.15884 2276 ft 198 kts 86°
2026-04-28 07:58 51.86442 4.18129 2144 ft 194 kts 86°
2026-04-28 07:58 51.86492 4.20182 2014 ft 172 kts 81°
2026-04-28 07:58 51.86821 4.21917 1973 ft 156 kts 65°
2026-04-28 07:58 51.87367 4.23464 1970 ft 157 kts 58°
2026-04-28 07:59 51.87980 4.24925 1973 ft 157 kts 56°
2026-04-28 07:59 51.88602 4.26383 1972 ft 157 kts 57°
2026-04-28 07:59 51.89208 4.27847 1973 ft 157 kts 58°
2026-04-28 07:59 51.89800 4.29316 1962 ft 157 kts 58°
2026-04-28 08:00 51.90398 4.30811 1774 ft 158 kts 58°
2026-04-28 08:00 51.90987 4.32284 1590 ft 155 kts 58°
2026-04-28 08:00 51.91581 4.33767 1376 ft 156 kts 58°
2026-04-28 08:00 51.92165 4.35225 1165 ft 147 kts 57°
2026-04-28 08:01 51.92672 4.36482 1000 ft 120 kts 56°
2026-04-28 08:01 51.93102 4.37544 859 ft 109 kts 57°
2026-04-28 08:01 51.93568 4.38703 879 ft 127 kts 62°
2026-04-28 08:01 51.94012 4.39800 574 ft 111 kts 56°
2026-04-28 08:02 51.94420 4.40849 408 ft 113 kts 56°
2026-04-28 08:02 51.94833 4.41878 213 ft 107 kts 56°
2026-04-28 08:02 51.95237 4.42897 56 ft 107 kts 53°
2026-04-28 08:02 51.95631 4.43867 -7 ft 93 kts 58°
2026-04-28 08:03 51.95878 4.44501 -7 ft 18 kts 58°
2026-04-28 08:03 51.95900 4.44559 -8 ft 0 kts 59°
2026-04-28 08:03 51.95899 4.44556 -8 ft 0 kts 59°
2026-04-28 08:03 51.95898 4.44553 -8 ft 0 kts 59°
2026-04-28 08:04 51.95893 4.44540 -8 ft 0 kts 59°